Showing default

TIANLIAN-2 05, 63662

Orbit data source: Space-Track

TIANLIAN-2 05, 63662 is a payload satellite owned by CAST (CN) in GEO that was launched on Sun, 27 Apr 2025 UTC via a CHANG ZHENG 3B launch vehicle from the Xichang Space Center, China (XSC). Payload-class satellites include a variety of spacecraft equipped with specific instruments for various scientific and technological missions. These include communications satellites like Starlink; space stations such as the ISS; scientific satellites like the Hubble; Earth observation satellites from companies like Planet Labs, Umbra, and HawkEye 360; GPS; miniature CubeSats for education and research; and military/defense satellites.

Not visible in the next 10 days
Identifier
63662, 2025-084A
Orbit
GEO
Country
Flag of CNCN / PRC
Related business
Manufacturer
CAST
Mission
Operational Civil Communications
Bus & Motor
DFH-4, FY-25
Mass
~5,000 kg wet, ~2,000 kg dry
Launch date (UTC)
2025-04-27 (1 year ago)
Launch vehicle
CHANG ZHENG 3B
Launch site
Xichang Space Center, China (XSC)
Object type
Payload
Rocket body
Debris
Shape & HBR
Box + 2 Pan + 1 Dish, 10.0 m
Radar Cross Section
40.604 m², Large (>1 m²)

Expand to show TLE details & history
Last TLE update: 15 hours ago

TLE from 15 hours ago
0 TIANLIAN-2 05
1 63662U 25084A   26257.79304102  .00000114  00000-0  00000-0 0  9996
2 63662   4.2306 278.8652 0001192 201.1662 179.6225  1.00274146  5281
Epoch: 2026-09-14T19:01Z
TLE epoch observation values (Epoch: 2026-09-14T19:01:58.744Z)
Latitude
1.5166°
Longitude
20.34105°
Altitude
35,790.265 km
Speed
3.074 km/s
True Right ascension
19h 58m 24s
True Declination
1° 30' 54"
Sunlit
Object was in daylight at epoch
Visualization orbit readout
Latitude
Unknown
Longitude
Unknown
Altitude
Unknown
Speed
Unknown
Apparent Right ascension
Unknown
Apparent Declination
Unknown
Sunlit
N/A
Visualization observer readout
Local Sidereal Time
02:10:53
Azimuth
Unknown
Elevation
Unknown
Doppler factor
Unknown
Orbital elements
Apogee altitude
35,792.021 km
Perigee altitude
35,781.969 km
Semi-major axis
42,165.132 km
Eccentricity
0.00012
Inclination
4.2306°
RAAN
278.8652°
Arg. of periapsis
201.1662°
True anomaly
179.62259°
Mean anomaly
179.6225°
Eccentric anomaly
179.62254°
Mean motion
0.25068 °/min
Orbital period
1,436.12 mins
BSTAR
0
Loading maneuver chart data...
Computing Atmospheric mass density...
Loading historical data...
Loading historical data...
Loading historical data...
Loading historical data...
Loading historical data...
Loading historical data...
Loading historical data...
Other satellites on launch #84 in the year 2025 (2025-04-27 UTC)

Documentation

Showing up to 5 results
|